This is the latest recevied weather packets stored in our database for station/object F4IKI-10. If no packets are shown the sender has not sent any weather packets the latest 10 day(s).
| Time | Temp. | Humidity | Pressure | Rain* | Wind** | Luminosity | Snow |
|---|---|---|---|---|---|---|---|
| 1777236954 | 21.11° C | 58% | 1023.2 hPa | - | - | - | - |
| 1777236054 | 21.67° C | 57% | 1023.1 hPa | - | - | - | - |
| 1777235154 | 21.67° C | 57% | 1023 hPa | - | - | - | - |
| 1777234254 | 21.67° C | 57% | 1022.8 hPa | - | - | - | - |
| 1777233354 | 21.67° C | 57% | 1022.8 hPa | - | - | - | - |
| 1777232454 | 21.67° C | 56% | 1022.6 hPa | - | - | - | - |
| 1777231553 | 21.67° C | 56% | 1022.6 hPa | - | - | - | - |
| 1777230653 | 22.22° C | 56% | 1022.5 hPa | - | - | - | - |
| 1777229753 | 21.67° C | 56% | 1022.4 hPa | - | - | - | - |
| 1777228853 | 21.67° C | 55% | 1022.3 hPa | - | - | - | - |
| 1777227953 | 21.67° C | 55% | 1022.2 hPa | - | - | - | - |
| 1777227053 | 21.67° C | 56% | 1022 hPa | - | - | - | - |
| 1777226153 | 21.11° C | 58% | 1022 hPa | - | - | - | - |
| 1777225253 | 20° C | 59% | 1022 hPa | - | - | - | - |
| 1777224353 | 20° C | 59% | 1022.2 hPa | - | - | - | - |
| 1777223453 | 20° C | 59% | 1022.2 hPa | - | - | - | - |
| 1777222552 | 20° C | 59% | 1022.2 hPa | - | - | - | - |
| 1777221652 | 20° C | 59% | 1022.2 hPa | - | - | - | - |
| 1777220752 | 20° C | 59% | 1022.2 hPa | - | - | - | - |
| 1777219852 | 20° C | 59% | 1022.2 hPa | - | - | - | - |
| 1777218952 | 20° C | 59% | 1022.3 hPa | - | - | - | - |
| 1777218052 | 20° C | 59% | 1022.5 hPa | - | - | - | - |
| 1777217152 | 20° C | 58% | 1022.5 hPa | - | - | - | - |
| 1777216252 | 20° C | 59% | 1022.4 hPa | - | - | - | - |
| 1777215351 | 20° C | 59% | 1022.4 hPa | - | - | - | - |
* Rain since midnight (hover to see other rain measurements)
** Current wind speed in m/s (hover to see current wind gust speed)